Location: Newark
(11.2914°S, 14.4718°E)
Time: 02:43:30
(UTC+00:00)

N. Korean satellite - Visible Passes

Search period start: 18 July 2019 00:00
Search period end: 28 July 2019 00:00
Orbit: 456 x 508 km, 97.2° (Epoch: 17 July)

Date Brightness Start Highest point End Pass type
(mag) Time Alt. Az. Time Alt. Az. Time Alt. Az.
18 Jul 8.9 04:03:36 10° NE 04:06:42 25° ESE 04:09:50 10° SSE visible
18 Jul 8.9 17:18:47 10° SSW 17:21:37 24° WSW 17:24:27 10° NW visible
19 Jul 9.9 03:40:52 10° E 03:41:45 11° ESE 03:42:37 10° ESE visible
20 Jul 6.7 04:46:06 10° N 04:49:45 58° W 04:53:26 10° SSW visible
21 Jul 7.5 04:21:07 10° NNE 04:24:43 50° ESE 04:28:20 10° S visible
21 Jul 9.6 17:38:04 10° SW 17:39:34 12° WSW 17:41:05 10° WNW visible
22 Jul 9.2 03:56:56 10° NE 03:59:44 20° ESE 04:02:30 10° SSE visible
24 Jul 6.6 04:39:02 10° N 04:42:44 77° W 04:46:26 10° SSW visible
25 Jul 8.1 04:14:14 10° NNE 04:17:42 38° ESE 04:21:09 10° S visible
25 Jul 9.4 17:30:20 10° SW 17:32:31 16° WSW 17:34:42 10° WNW visible
26 Jul 9.6 03:50:23 10° ENE 03:52:41 16° ESE 03:54:59 10° SE visible
